TimeMST,TemperatureF,Dew PointF,Humidity,Sea Level PressureIn,VisibilityMPH,Wind Direction,Wind SpeedMPH,Gust SpeedMPH,PrecipitationIn,Events,Conditions,WindDirDegrees,DateUTC
12:53 AM,27.0,19.9,75,30.17,10.0,WSW,10.4,-,N/A,,Clear,240,2012-11-27 07:53:00
1:53 AM,26.1,19.0,75,30.16,10.0,SW,8.1,-,N/A,,Clear,220,2012-11-27 08:53:00
2:53 AM,28.0,19.0,69,30.15,10.0,WSW,16.1,-,N/A,,Clear,240,2012-11-27 09:53:00
3:53 AM,28.9,19.0,67,30.14,10.0,WSW,13.8,-,N/A,,Clear,240,2012-11-27 10:53:00
4:53 AM,27.0,19.0,72,30.14,10.0,SW,12.7,-,N/A,,Clear,230,2012-11-27 11:53:00
5:53 AM,24.1,18.0,77,30.16,10.0,SSW,9.2,-,N/A,,Clear,210,2012-11-27 12:53:00
6:53 AM,27.0,19.0,72,30.18,10.0,SW,8.1,-,N/A,,Scattered Clouds,220,2012-11-27 13:53:00
7:53 AM,27.0,19.0,72,30.19,10.0,SW,6.9,-,N/A,,Scattered Clouds,230,2012-11-27 14:53:00
8:53 AM,27.0,19.0,72,30.22,10.0,SW,10.4,-,N/A,,Scattered Clouds,230,2012-11-27 15:53:00
9:53 AM,28.9,21.9,75,30.22,10.0,SSW,3.5,-,N/A,,Scattered Clouds,200,2012-11-27 16:53:00
10:53 AM,34.0,21.9,61,30.22,10.0,Calm,Calm,-,N/A,,Partly Cloudy,0,2012-11-27 17:53:00
11:53 AM,34.0,24.1,67,30.22,10.0,South,3.5,-,N/A,,Partly Cloudy,190,2012-11-27 18:53:00
12:53 PM,36.0,25.0,64,30.19,10.0,South,4.6,-,N/A,,Partly Cloudy,180,2012-11-27 19:53:00
1:53 PM,37.9,25.0,60,30.19,10.0,Calm,Calm,-,N/A,,Partly Cloudy,0,2012-11-27 20:53:00
2:53 PM,39.0,27.0,62,30.18,10.0,Calm,Calm,-,N/A,,Partly Cloudy,0,2012-11-27 21:53:00
3:53 PM,36.0,26.1,67,30.19,10.0,South,4.6,-,N/A,,Scattered Clouds,170,2012-11-27 22:53:00
4:53 PM,36.0,24.1,62,30.20,10.0,South,4.6,-,N/A,,Partly Cloudy,170,2012-11-27 23:53:00
5:53 PM,35.1,24.1,64,30.20,10.0,South,6.9,-,N/A,,Clear,180,2012-11-28 00:53:00
6:53 PM,33.1,24.1,70,30.19,10.0,SSW,5.8,-,N/A,,Clear,200,2012-11-28 01:53:00
7:53 PM,30.9,24.1,76,30.19,10.0,SSW,8.1,-,N/A,,Clear,210,2012-11-28 02:53:00
8:53 PM,30.9,24.1,76,30.18,10.0,SSW,4.6,-,N/A,,Clear,200,2012-11-28 03:53:00
9:53 PM,27.0,23.0,85,30.18,10.0,Calm,Calm,-,N/A,,Clear,0,2012-11-28 04:53:00
10:53 PM,32.0,21.9,66,30.15,10.0,SSW,3.5,-,N/A,,Partly Cloudy,200,2012-11-28 05:53:00
11:53 PM,30.0,21.9,72,30.15,10.0,South,3.5,-,N/A,,Clear,170,2012-11-28 06:53:00